Time,TemperatureF,DewpointF,PressureIn,WindDirection,WindDirectionDegrees,WindSpeedMPH,WindSpeedGustMPH,Humidity,HourlyPrecipIn,Conditions,Clouds,dailyrainin,SoftwareType,DateUTC
2013-05-25 00:22:00,47.0,-99.9,-100.00,North,-999,-999.0,-999.0,-999,0.00,,,0.01,,2013-05-25 06:22:00,
2013-05-25 00:33:00,47.0,-99.9,-100.00,North,-999,-999.0,-999.0,-999,0.00,,,0.01,,2013-05-25 06:33:00,
2013-05-25 00:42:00,47.0,-99.9,-100.00,North,-999,-999.0,-999.0,-999,0.00,,,0.01,,2013-05-25 06:42:00,
2013-05-25 01:22:00,50.0,-99.9,-100.00,North,-999,-999.0,-999.0,-999,0.00,,,0.01,,2013-05-25 07:22:00,
2013-05-25 02:23:00,45.0,-99.9,-100.00,North,-999,-999.0,-999.0,-999,-99.99,,,0.01,,2013-05-25 08:23:00,
2013-05-25 02:32:00,45.0,-99.9,-100.00,North,-999,-999.0,-999.0,-999,-99.99,,,0.01,,2013-05-25 08:32:00,
2013-05-25 02:42:00,45.0,-99.9,-100.00,North,-999,-999.0,-999.0,-999,-99.99,,,0.01,,2013-05-25 08:42:00,
2013-05-25 03:22:00,44.0,-99.9,-100.00,North,-999,-999.0,-999.0,-999,-99.99,,,0.01,,2013-05-25 09:22:00,
2013-05-25 03:33:00,44.0,-99.9,-100.00,North,-999,-999.0,-999.0,-999,-99.99,,,0.01,,2013-05-25 09:33:00,
2013-05-25 03:43:00,44.0,-99.9,-100.00,North,-999,-999.0,-999.0,-999,-99.99,,,0.01,,2013-05-25 09:43:00,
2013-05-25 04:23:00,46.0,-99.9,-100.00,North,-999,-999.0,-999.0,-999,-99.99,,,0.00,,2013-05-25 10:23:00,
2013-05-25 05:22:00,50.0,-99.9,-100.00,North,-999,-999.0,-999.0,-999,-99.99,,,0.01,,2013-05-25 11:22:00,
2013-05-25 06:22:00,50.0,-99.9,-100.00,North,-999,-999.0,-999.0,-999,-99.99,,,0.01,,2013-05-25 12:22:00,
2013-05-25 07:22:00,42.0,-99.9,-100.00,North,-999,-999.0,-999.0,-999,-99.99,,,0.00,,2013-05-25 13:22:00,
2013-05-25 07:32:00,42.0,-99.9,-100.00,North,-999,-999.0,-999.0,-999,-99.99,,,0.00,,2013-05-25 13:32:00,
2013-05-25 07:42:00,42.0,-99.9,-100.00,North,-999,-999.0,-999.0,-999,-99.99,,,0.00,,2013-05-25 13:42:00,
2013-05-25 08:22:00,57.0,-99.9,-100.00,North,-999,-999.0,-999.0,-999,0.01,,,0.01,,2013-05-25 14:22:00,
2013-05-25 09:22:00,67.0,-99.9,-100.00,North,-999,-999.0,-999.0,-999,-99.99,,,0.00,,2013-05-25 15:22:00,
2013-05-25 10:23:00,63.0,-99.9,-100.00,North,-999,-999.0,-999.0,-999,-99.99,,,0.02,,2013-05-25 16:23:00,
2013-05-25 11:22:00,64.0,-99.9,-100.00,North,-999,-999.0,-999.0,-999,0.00,,,0.02,,2013-05-25 17:22:00,
2013-05-25 11:33:00,64.0,-99.9,-100.00,North,-999,-999.0,-999.0,-999,0.00,,,0.02,,2013-05-25 17:33:00,
2013-05-25 11:42:00,64.0,-99.9,-100.00,North,-999,-999.0,-999.0,-999,0.00,,,0.02,,2013-05-25 17:42:00,
2013-05-25 12:22:00,64.0,-99.9,-100.00,North,-999,-999.0,-999.0,-999,0.00,,,0.02,,2013-05-25 18:22:00,
2013-05-25 12:32:00,64.0,-99.9,-100.00,North,-999,-999.0,-999.0,-999,0.00,,,0.02,,2013-05-25 18:32:00,
2013-05-25 12:42:00,64.0,-99.9,-100.00,North,-999,-999.0,-999.0,-999,0.00,,,0.02,,2013-05-25 18:42:00,
2013-05-25 13:22:00,64.0,-99.9,-100.00,North,-999,-999.0,-999.0,-999,0.00,,,0.02,,2013-05-25 19:22:00,
2013-05-25 13:32:00,64.0,-99.9,-100.00,North,-999,-999.0,-999.0,-999,0.00,,,0.02,,2013-05-25 19:32:00,
2013-05-25 13:42:00,64.0,-99.9,-100.00,North,-999,-999.0,-999.0,-999,0.00,,,0.02,,2013-05-25 19:42:00,
2013-05-25 15:22:00,60.0,-99.9,-100.00,North,-999,-999.0,-999.0,-999,-99.99,,,0.02,,2013-05-25 21:22:00,
2013-05-25 15:33:00,60.0,-99.9,-100.00,North,-999,-999.0,-999.0,-999,-99.99,,,0.02,,2013-05-25 21:33:00,
2013-05-25 15:43:00,60.0,-99.9,-100.00,North,-999,-999.0,-999.0,-999,-99.99,,,0.02,,2013-05-25 21:43:00,
2013-05-25 16:23:00,61.0,-99.9,-100.00,North,-999,-999.0,-999.0,-999,-99.99,,,0.01,,2013-05-25 22:23:00,
2013-05-25 16:33:00,61.0,-99.9,-100.00,North,-999,-999.0,-999.0,-999,-99.99,,,0.01,,2013-05-25 22:33:00,
2013-05-25 16:42:00,61.0,-99.9,-100.00,North,-999,-999.0,-999.0,-999,-99.99,,,0.01,,2013-05-25 22:42:00,
2013-05-25 17:22:00,61.0,-99.9,-100.00,North,-999,-999.0,-999.0,-999,0.00,,,0.01,,2013-05-25 23:22:00,
2013-05-25 17:32:00,61.0,-99.9,-100.00,North,-999,-999.0,-999.0,-999,0.00,,,0.01,,2013-05-25 23:32:00,
2013-05-25 17:42:00,61.0,-99.9,-100.00,North,-999,-999.0,-999.0,-999,0.00,,,0.01,,2013-05-25 23:42:00,
2013-05-25 18:22:00,60.0,-99.9,-100.00,North,-999,-999.0,-999.0,-999,0.00,,,0.01,,2013-05-26 00:22:00,
2013-05-25 18:32:00,60.0,-99.9,-100.00,North,-999,-999.0,-999.0,-999,0.00,,,0.01,,2013-05-26 00:32:00,
2013-05-25 18:43:00,60.0,-99.9,-100.00,North,-999,-999.0,-999.0,-999,0.00,,,0.01,,2013-05-26 00:43:00,
2013-05-25 19:22:00,58.0,-99.9,-100.00,North,-999,-999.0,-999.0,-999,0.00,,,0.01,,2013-05-26 01:22:00,
2013-05-25 19:32:00,58.0,-99.9,-100.00,North,-999,-999.0,-999.0,-999,0.00,,,0.01,,2013-05-26 01:32:00,
2013-05-25 19:42:00,58.0,-99.9,-100.00,North,-999,-999.0,-999.0,-999,0.00,,,0.01,,2013-05-26 01:42:00,
2013-05-25 20:22:00,55.0,-99.9,-100.00,North,-999,-999.0,-999.0,-999,0.00,,,0.01,,2013-05-26 02:22:00,
2013-05-25 20:32:00,55.0,-99.9,-100.00,North,-999,-999.0,-999.0,-999,0.00,,,0.01,,2013-05-26 02:32:00,
2013-05-25 20:42:00,55.0,-99.9,-100.00,North,-999,-999.0,-999.0,-999,0.00,,,0.01,,2013-05-26 02:42:00,
2013-05-25 21:22:00,52.0,-99.9,-100.00,North,-999,-999.0,-999.0,-999,-99.99,,,0.00,,2013-05-26 03:22:00,
2013-05-25 21:33:00,52.0,-99.9,-100.00,North,-999,-999.0,-999.0,-999,-99.99,,,0.00,,2013-05-26 03:33:00,
2013-05-25 21:43:00,52.0,-99.9,-100.00,North,-999,-999.0,-999.0,-999,-99.99,,,0.00,,2013-05-26 03:43:00,
2013-05-25 22:23:00,50.0,-99.9,-100.00,North,-999,-999.0,-999.0,-999,0.00,,,-99.99,,2013-05-26 04:23:00,
2013-05-25 22:33:00,50.0,-99.9,-100.00,North,-999,-999.0,-999.0,-999,0.00,,,-99.99,,2013-05-26 04:33:00,
2013-05-25 22:43:00,50.0,-99.9,-100.00,North,-999,-999.0,-999.0,-999,0.00,,,-99.99,,2013-05-26 04:43:00,
2013-05-25 23:22:00,50.0,-99.9,-100.00,North,-999,-999.0,-999.0,-999,0.00,,,0.00,,2013-05-26 05:22:00,
2013-05-25 23:32:00,50.0,-99.9,-100.00,North,-999,-999.0,-999.0,-999,0.00,,,0.00,,2013-05-26 05:32:00,
2013-05-25 23:42:00,50.0,-99.9,-100.00,North,-999,-999.0,-999.0,-999,0.00,,,0.00,,2013-05-26 05:42:00,